[[{"header":{"parameterUnit":"m.s-1","parameterCategory":1,"la1":30.2991,"la2":30.254,"lo1":-89.0895,"lo2":-89.0444,"dy":0.0017,"dx":0.0017,"nx":28,"ny":28,"refTime":"2025-09-13T21:00:00:Z","depth":0,"parameterNumber":2,"parameterNumberName":"U-component_of_WINDS"},"data":[0,0,0,0,0,0,0,0,0,0,0,0,0,0,0,0,0,0,0,0,0,0,0,0,0,0,0,0,0,0,0,0,0,0,0,0,0,0,0,0,0,0,0,0,0,0,0,0,0,0,0,0,0,0,0,0,0,0,-3.1577,-3.1577,0,-3.1565,-3.1565,-3.1565,-3.1518,-3.1517,-3.1516,-3.1515,-3.1503,-3.1504,-3.1505,0,0,0,0,0,0,0,0,0,0,0,0,0,-3.156,-3.1561,-3.1577,-3.1577,-3.1577,-3.1565,-3.1565,-3.1565,-3.1518,-3.1517,-3.1516,-3.1514,-3.1503,-3.1504,-3.1505,0,0,0,0,0,0,0,0,0,0,0,0,0,-3.156,-3.1561,-3.1577,-3.1552,-3.1549,-3.1565,-3.1565,-3.1565,-3.1518,-3.1517,-3.1515,-3.1514,-3.1503,-3.1504,-3.1505,-3.1544,0,0,-3.1508,-3.1509,0,0,0,0,0,0,0,0,-3.156,-3.1561,-3.1556,-3.1554,-3.1551,-3.1541,-3.1555,-3.1558,-3.1519,-3.153,-3.1515,-3.1513,-3.1517,-3.1517,-3.1519,-3.1544,-3.1543,-3.1508,-3.1509,-3.1509,-3.151,0,0,0,0,0,0,0,-3.156,-3.1561,-3.1572,-3.1556,-3.1553,-3.1542,-3.154,-3.1555,-3.1533,-3.1529,-3.1526,-3.1525,-3.1516,-3.1518,-3.1518,-3.1543,-3.1508,-3.1509,-3.151,-3.151,-3.1602,-3.1604,0,0,0,0,0,0,-3.1564,-3.1561,-3.1573,-3.1572,-3.1552,-3.1543,-3.1541,-3.1546,-3.1533,-3.1529,-3.1526,-3.1523,-3.1517,-3.1517,-3.1517,-3.1563,-3.1509,-3.151,-3.1511,-3.16,-3.1602,-3.1604,0,0,0,0,0,0,-3.1563,-3.1565,-3.1573,-3.1566,-3.1566,-3.1545,-3.1551,-3.1547,-3.1548,-3.1531,-3.1527,-3.1532,-3.1515,-3.1516,-3.1538,-3.1562,-3.1511,-3.1512,-3.1598,-3.1601,-3.1603,-3.1654,0,0,0,0,0,0,-3.1563,-3.1565,-3.1579,-3.1566,-3.1566,-3.1594,-3.1553,-3.1548,-3.155,-3.1546,-3.1535,-3.1532,-3.1514,-3.1537,-3.1539,-3.1563,-3.1513,-3.1596,-3.1599,-3.1602,-3.1651,-3.1659,-3.1665,0,0,0,0,0,-3.1563,-3.1594,-3.158,-3.1582,-3.1583,-3.1595,-3.1595,-3.1574,-3.1553,-3.1567,-3.1556,-3.1532,-3.156,-3.154,-3.1542,-3.1566,-3.1594,-3.1598,-3.1602,-3.1647,-3.1657,-3.1665,0,0,0,0,0,0,-3.1609,-3.1591,-3.1576,-3.1604,-3.1601,-3.1587,-3.1604,-3.1585,-3.1588,-3.1584,-3.1558,-3.1556,-3.1582,-3.1576,-3.1555,-3.1604,-3.1573,-3.1578,-3.1606,-3.1616,-3.1623,-3.1623,-3.1514,0,0,0,0,0,-3.1623,-3.1633,-3.1617,-3.1644,-3.1643,-3.1624,-3.1628,-3.1613,-3.1609,-3.1608,-3.1598,-3.1596,-3.1604,-3.161,-3.1616,-3.165,-3.1648,-3.1668,-3.1676,-3.1682,-3.1686,-3.1705,-3.1714,-3.1617,-3.1617,-3.1617,0,0,-3.1651,-3.1642,-3.165,-3.1653,-3.1649,-3.1661,-3.1623,-3.1637,-3.1646,-3.161,-3.163,-3.1624,-3.162,-3.1648,-3.1661,-3.1644,-3.1712,-3.1687,-3.1692,-3.1692,-3.171,-3.1719,-3.1727,-3.162,-3.162,-3.1619,0,0,-3.1707,-3.1702,-3.1724,-3.1721,-3.1716,-3.1704,-3.171,-3.1699,-3.1693,-3.1713,-3.1687,-3.1698,-3.1712,-3.1711,-3.1712,-3.1772,-3.175,-3.1775,-3.1813,-3.1832,-3.1839,-3.1846,-3.1867,-3.1875,-3.1779,-3.1779,-3.1779,0,-3.1742,-3.1759,-3.1737,-3.1753,-3.1756,-3.1725,-3.1747,-3.1746,-3.1743,-3.1746,-3.1728,-3.1747,-3.1742,-3.177,-3.1785,-3.1787,-3.1793,-3.1775,-3.184,-3.1846,-3.1852,-3.1872,-3.188,-3.1782,-3.1782,-3.1782,-3.1781,0,-3.1802,-3.1815,-3.1833,-3.1832,-3.1837,-3.1856,-3.1838,-3.1846,-3.1831,-3.1821,-3.1843,-3.1837,-3.1842,-3.1848,-3.1833,-3.1875,-3.1865,-3.1844,-3.1812,-3.1865,-3.1883,-3.1891,-3.1786,-3.1785,-3.1785,-3.1784,0,0,-3.1884,-3.1874,-3.1881,-3.1881,-3.1875,-3.1884,-3.1903,-3.1908,-3.1916,-3.1916,-3.1932,-3.1946,-3.1927,-3.1929,-3.1914,-3.1931,-3.1979,-3.1908,-3.1907,-3.1921,-3.2026,-3.2041,-3.205,-3.1966,-3.1968,-3.1969,-3.2026,0,-3.1938,-3.1969,-3.1951,-3.1985,-3.1997,-3.1969,-3.1986,-3.1984,-3.1977,-3.1986,-3.1978,-3.1988,-3.1963,-3.1964,-3.1979,-3.197,-3.2,-3.1966,-3.198,-3.1981,-3.198,-3.206,-3.2075,-3.2129,-3.2033,-3.2034,-3.2035,0,-3.2004,-3.2008,-3.2043,-3.2036,-3.2041,-3.2056,-3.206,-3.207,-3.2069,-3.2062,-3.2065,-3.2047,-3.2067,-3.2037,-3.2063,-3.2041,-3.2046,-3.2043,-3.2045,-3.2044,-3.201,-3.206,-3.2146,-3.2154,-3.2047,-3.2046,-3.2045,0,-3.206,-3.2074,-3.2097,-3.2098,-3.2091,-3.2103,-3.2101,-3.2098,-3.2103,-3.2108,-3.2111,-3.2119,-3.2122,-3.2129,-3.2114,-3.2093,-3.2143,-3.2111,-3.2138,-3.2138,-3.2147,-3.2147,-3.2234,-3.2153,-3.2153,-3.2153,-3.2153,0,-3.212,-3.2143,-3.2123,-3.2136,-3.2161,-3.2143,-3.2168,-3.2163,-3.2161,-3.2175,-3.2152,-3.2165,-3.2145,-3.2157,-3.2146,-3.217,-3.2172,-3.2167,-3.2163,-3.2168,-3.2169,-3.217,-3.2165,-3.2155,-3.2155,-3.2154,-3.2154,0,-3.2186,-3.2173,-3.2197,-3.2189,-3.2188,-3.2207,-3.2201,-3.2214,-3.2206,-3.2223,-3.2226,-3.2214,-3.2226,-3.2213,-3.2224,-3.2217,-3.2249,-3.2241,-3.2249,-3.2246,-3.2273,-3.2271,-3.2364,-3.2375,-3.2288,-3.2289,-3.229,0,-3.2224,-3.2241,-3.2236,-3.2244,-3.2243,-3.2255,-3.2261,-3.2244,-3.2251,-3.2253,-3.2266,-3.2277,-3.2285,-3.2307,-3.2299,-3.2308,-3.2299,-3.2331,-3.23,-3.2305,-3.2299,-3.2297,-3.2299,-3.2337,-3.2338,-3.2339,-3.2339,0,-3.2294,-3.2288,-3.2297,-3.2305,-3.2312,-3.2317,-3.2321,-3.2328,-3.2311,-3.2321,-3.2333,-3.234,-3.2353,-3.2364,-3.2371,-3.237,-3.2352,-3.235,-3.2356,-3.236,-3.2364,-3.2362,-3.2265,-3.2347,-3.2346,-3.2346,-3.2345,-3.2345,-3.2347,-3.2361,-3.236,-3.2372,-3.2373,-3.2377,-3.239,-3.2384,-3.2395,-3.2403,-3.2394,-3.241,-3.2411,-3.2419,-3.242,-3.2433,-3.242,-3.2429,-3.2431,-3.2434,-3.2437,-3.2364,-3.2435,-3.2435,-3.2434,-3.2434,-3.2434,0,-3.2415,-3.2414,-3.2425,-3.2431,-3.244,-3.2424,-3.2428,-3.2437,-3.2451,-3.2454,-3.2463,-3.2479,-3.249,-3.2485,-3.2495,-3.2507,-3.2499,-3.251,-3.2508,-3.2508,-3.2449,-3.2442,-3.2516,-3.2516,-3.2516,-3.2516,-3.2516,-3.2516,-3.2451,-3.2474,-3.2469,-3.2493,-3.2492,-3.2508,-3.2511,-3.2516,-3.2518,-3.2537,-3.2546,-3.2543,-3.2543,-3.2554,-3.2564,-3.2562,-3.2567,-3.2581,-3.2576,-3.252,-3.2512,-3.2504,-3.2498,-3.2582,-3.2582,-3.2634,-3.2634,-3.2635]},{"header":{"parameterUnit":"m.s-1","parameterCategory":1,"la1":30.2991,"la2":30.254,"lo1":-89.0895,"lo2":-89.0444,"dy":0.0017,"dx":0.0017,"nx":28,"ny":28,"refTime":"2025-09-13T21:00:00:Z","depth":0,"parameterNumber":3,"parameterNumberName":"V-component_of_WINDS"},"data":[0,0,0,0,0,0,0,0,0,0,0,0,0,0,0,0,0,0,0,0,0,0,0,0,0,0,0,0,0,0,0,0,0,0,0,0,0,0,0,0,0,0,0,0,0,0,0,0,0,0,0,0,0,0,0,0,0,0,1.1873,1.1873,0,1.1896,1.1896,1.1897,1.1946,1.1947,1.1948,1.1949,1.197,1.197,1.197,0,0,0,0,0,0,0,0,0,0,0,0,0,1.187,1.1869,1.1873,1.1873,1.1874,1.1896,1.1896,1.1897,1.1946,1.1947,1.1948,1.1949,1.197,1.197,1.1969,0,0,0,0,0,0,0,0,0,0,0,0,0,1.1879,1.1869,1.1873,1.1901,1.1904,1.1896,1.1896,1.1897,1.1946,1.1947,1.1949,1.195,1.197,1.197,1.1969,1.1936,0,0,1.1968,1.1967,0,0,0,0,0,0,0,0,1.1879,1.188,1.1896,1.1899,1.1902,1.192,1.1903,1.191,1.1945,1.1929,1.1949,1.1951,1.1952,1.1953,1.1954,1.1937,1.1938,1.1968,1.1967,1.1967,1.1967,0,0,0,0,0,0,0,1.1878,1.1879,1.1882,1.1897,1.19,1.1912,1.1915,1.1904,1.1932,1.1931,1.1935,1.1937,1.1954,1.1954,1.1955,1.1938,1.1968,1.1967,1.1967,1.1967,1.1893,1.1891,0,0,0,0,0,0,1.1874,1.1878,1.1881,1.1883,1.1894,1.191,1.1914,1.1912,1.1932,1.1937,1.1935,1.1939,1.1955,1.1955,1.1956,1.1916,1.1967,1.1967,1.1966,1.1894,1.1892,1.1891,0,0,0,0,0,0,1.1873,1.1874,1.188,1.1881,1.1883,1.1909,1.1907,1.1912,1.1913,1.1936,1.1941,1.1931,1.1956,1.1957,1.194,1.1918,1.1966,1.1966,1.1896,1.1894,1.1892,1.1838,0,0,0,0,0,0,1.1873,1.1873,1.1861,1.1881,1.1883,1.1865,1.1906,1.1911,1.1912,1.1917,1.1933,1.1937,1.1957,1.1941,1.194,1.1918,1.1965,1.1898,1.1895,1.1892,1.1841,1.1834,1.1827,0,0,0,0,0,1.1873,1.1845,1.186,1.186,1.1868,1.1863,1.1865,1.1889,1.191,1.1897,1.1912,1.1936,1.1921,1.1939,1.1938,1.1915,1.19,1.1896,1.1893,1.1845,1.1835,1.1827,0,0,0,0,0,0,1.1821,1.1848,1.1865,1.1843,1.1851,1.1872,1.1857,1.1878,1.188,1.1884,1.1914,1.1917,1.1896,1.1905,1.1924,1.1883,1.1914,1.191,1.1878,1.1869,1.1862,1.1859,1.1965,0,0,0,0,0,1.1807,1.1802,1.1825,1.1803,1.1806,1.1831,1.183,1.1848,1.1857,1.186,1.1873,1.188,1.1877,1.1874,1.1872,1.1844,1.1847,1.1828,1.1821,1.1815,1.181,1.1794,1.1785,1.1879,1.1879,1.1879,0,0,1.1778,1.1792,1.1786,1.1793,1.1801,1.1793,1.1833,1.1824,1.1818,1.1858,1.1843,1.1853,1.1863,1.184,1.1831,1.1846,1.1785,1.181,1.1805,1.1804,1.1789,1.178,1.1772,1.1876,1.1877,1.1877,0,0,1.1721,1.1732,1.1714,1.1721,1.1733,1.175,1.1745,1.1763,1.1772,1.1758,1.1787,1.1781,1.1775,1.178,1.1782,1.1727,1.1748,1.1725,1.1686,1.167,1.1663,1.1656,1.1635,1.1627,1.1721,1.1721,1.1721,0,1.1682,1.1673,1.1701,1.169,1.1691,1.1728,1.171,1.1715,1.1726,1.1725,1.1744,1.1736,1.1746,1.1723,1.171,1.1711,1.1706,1.1723,1.1662,1.1656,1.165,1.163,1.1622,1.1718,1.1719,1.1719,1.1719,0,1.1625,1.1618,1.1602,1.1611,1.1611,1.1596,1.1621,1.1618,1.1636,1.165,1.1635,1.1647,1.1648,1.1645,1.1663,1.1625,1.1634,1.1657,1.1688,1.1638,1.1619,1.1611,1.1714,1.1715,1.1716,1.1717,0,0,1.1533,1.1559,1.1553,1.1557,1.1573,1.1568,1.1554,1.1556,1.1551,1.1558,1.1546,1.154,1.1561,1.1563,1.1582,1.1568,1.1521,1.1592,1.1593,1.1576,1.1478,1.1459,1.1449,1.1536,1.1535,1.1534,1.1476,0,1.1478,1.1456,1.1482,1.1454,1.1447,1.1483,1.1471,1.1479,1.1492,1.1487,1.1502,1.1496,1.1526,1.1527,1.1515,1.1529,1.1501,1.1534,1.1524,1.1523,1.1518,1.144,1.142,1.1364,1.1469,1.1468,1.1467,0,1.141,1.1413,1.1385,1.1402,1.14,1.1389,1.1392,1.1388,1.1397,1.1408,1.141,1.1433,1.142,1.1452,1.1433,1.1455,1.1453,1.1459,1.1457,1.1455,1.149,1.1433,1.1347,1.1338,1.1456,1.1457,1.1458,0,1.1343,1.1341,1.1323,1.1326,1.1347,1.1337,1.1345,1.1357,1.1356,1.1358,1.1358,1.1359,1.1358,1.1358,1.138,1.1402,1.1358,1.1392,1.1365,1.1364,1.1352,1.1352,1.1262,1.1354,1.1354,1.1354,1.1355,0,1.1277,1.1258,1.1294,1.1282,1.1262,1.1291,1.1269,1.1281,1.1291,1.1282,1.1313,1.1304,1.1335,1.1329,1.1346,1.1327,1.1327,1.1334,1.1338,1.133,1.1328,1.1327,1.133,1.1352,1.1353,1.1353,1.1353,0,1.1198,1.1222,1.1204,1.1225,1.123,1.1214,1.1231,1.1221,1.1237,1.1225,1.1224,1.1248,1.1243,1.1266,1.1264,1.1275,1.1246,1.1258,1.1242,1.1245,1.1215,1.1217,1.1119,1.1107,1.1209,1.1208,1.1207,0,1.1153,1.1139,1.1159,1.1155,1.1162,1.1156,1.1155,1.1184,1.1181,1.1191,1.118,1.1177,1.1176,1.1165,1.1181,1.118,1.119,1.1156,1.119,1.1181,1.1187,1.1186,1.1184,1.1148,1.1147,1.1146,1.1145,0,1.107,1.1082,1.108,1.1082,1.108,1.1083,1.1088,1.1083,1.1114,1.111,1.1104,1.1104,1.1102,1.1098,1.11,1.1107,1.113,1.1135,1.1128,1.1118,1.1108,1.111,1.122,1.1136,1.1137,1.1138,1.1138,1.1139,1.1005,1.0994,1.1006,1.1002,1.1009,1.1013,1.1004,1.1019,1.1015,1.1016,1.1034,1.1024,1.1034,1.1039,1.1044,1.1037,1.1052,1.1043,1.104,1.1037,1.103,1.1112,1.1037,1.1038,1.1038,1.1038,1.1039,0,1.0921,1.0931,1.0928,1.0934,1.093,1.0955,1.0961,1.0957,1.0948,1.0956,1.0954,1.0947,1.0944,1.0961,1.0959,1.0949,1.096,1.0948,1.0947,1.0948,1.1018,1.1023,1.0939,1.0939,1.0939,1.0939,1.0939,1.0939,1.0877,1.0859,1.0873,1.0858,1.0868,1.0859,1.0861,1.0864,1.087,1.0861,1.0858,1.087,1.088,1.088,1.0877,1.0882,1.0879,1.0862,1.087,1.0934,1.0944,1.0953,1.0958,1.0862,1.0862,1.0802,1.0801,1.0801]}]]